StationID,Date,MaxTemp,MinTemp,Precipitation,Snowfall,SnowDepth
"CA007025245","1967-02-01",30.92,10.94,,,
"CA007025245","1967-02-02",24.98,12.02,,,
"CA007025245","1967-02-03",19.94,-5.08,,,
"CA007025245","1967-02-04",35.06,8.06,,,
"CA007025245","1967-02-05",32.00,19.94,,,
"CA007025245","1967-02-06",-0.94,-7.06,,,
"CA007025245","1967-02-07",3.92,-13.00,,,
"CA007025245","1967-02-08",19.04,-7.96,0.00,0.00,
"CA007025245","1967-02-09",24.98,8.96,0.00,0.00,
"CA007025245","1967-02-10",37.04,8.06,0.00,0.00,
"CA007025245","1967-02-11",37.04,12.92,0.00,0.00,
"CA007025245","1967-02-12",-11.02,-18.94,0.00,0.00,
"CA007025245","1967-02-13",3.02,-22.00,0.00,0.00,
"CA007025245","1967-02-14",10.94,-11.02,0.00,0.00,
"CA007025245","1967-02-15",28.04,6.98,107.00,107.00,
"CA007025245","1967-02-16",24.08,6.08,25.00,25.00,
"CA007025245","1967-02-17",3.92,-4.00,0.00,0.00,
"CA007025245","1967-02-18",6.08,-14.08,0.00,0.00,
"CA007025245","1967-02-19",10.04,-9.94,0.00,0.00,
"CA007025245","1967-02-20",17.06,-9.94,81.00,81.00,
"CA007025245","1967-02-21",19.94,8.96,0.00,0.00,
"CA007025245","1967-02-22",28.04,1.94,0.00,0.00,
"CA007025245","1967-02-23",32.00,15.98,30.00,30.00,
"CA007025245","1967-02-24",10.94,8.96,25.00,25.00,
"CA007025245","1967-02-25",12.92,-0.04,0.00,0.00,
"CA007025245","1967-02-26",15.08,5.00,0.00,0.00,
"CA007025245","1967-02-27",28.94,3.92,51.00,51.00,
"CA007025245","1967-02-28",30.92,21.02,0.00,0.00,
"CA007025245","1967-03-01",12.02,6.98,0.00,0.00,
"CA007025245","1967-03-02",24.98,-2.02,0.00,0.00,
"CA007025245","1967-03-03",39.02,19.04,0.00,0.00,
"CA007025245","1967-03-04",15.98,8.06,0.00,0.00,
"CA007025245","1967-03-05",19.94,-0.94,0.00,0.00,
"CA007025245","1967-03-06",28.94,14.00,0.00,0.00,
"CA007025245","1967-03-07",30.92,19.94,0.00,0.00,
"CA007025245","1967-03-08",12.02,-0.04,0.00,0.00,
"CA007025245","1967-03-09",28.94,-4.00,0.00,0.00,
"CA007025245","1967-03-10",42.08,17.06,0.00,0.00,
"CA007025245","1967-03-11",41.00,30.92,0.00,0.00,
"CA007025245","1967-03-12",21.02,12.02,0.00,0.00,
"CA007025245","1967-03-13",37.04,6.98,,,
"CA007025245","1967-03-14",35.06,26.96,0.00,0.00,
"CA007025245","1967-03-15",30.92,19.94,0.00,0.00,
"CA007025245","1967-03-16",21.92,15.08,0.00,0.00,
"CA007025245","1967-03-17",14.00,3.02,0.00,0.00,
"CA007025245","1967-03-18",8.96,-0.94,0.00,0.00,
"CA007025245","1967-03-19",24.98,-2.02,0.00,0.00,
"CA007025245","1967-03-20",32.00,17.96,0.00,0.00,
"CA007025245","1967-03-21",35.06,15.08,56.00,56.00,
"CA007025245","1967-03-22",35.96,26.06,0.00,0.00,
"CA007025245","1967-03-23",37.04,28.04,0.00,0.00,
"CA007025245","1967-03-24",39.02,24.98,0.00,0.00,
"CA007025245","1967-03-25",41.00,23.00,0.00,0.00,
"CA007025245","1967-03-26",39.92,24.98,0.00,0.00,
"CA007025245","1967-03-27",44.96,28.04,102.00,0.00,
"CA007025245","1967-03-28",41.00,33.98,0.00,0.00,
"CA007025245","1967-03-29",48.02,33.98,0.00,0.00,
"CA007025245","1967-03-30",37.04,26.06,0.00,0.00,
"CA007025245","1967-03-31",55.04,30.92,0.00,0.00,
"CA007025245","1967-04-01",60.08,37.94,0.00,0.00,
"CA007025245","1967-04-02",53.06,37.94,127.00,0.00,
"CA007025245","1967-04-03",42.98,35.06,0.00,0.00,
"CA007025245","1967-04-04",42.08,17.96,0.00,0.00,
"CA007025245","1967-04-05",51.08,33.98,0.00,0.00,
"CA007025245","1967-04-06",35.06,28.04,0.00,0.00,
"CA007025245","1967-04-07",35.06,28.04,0.00,0.00,
"CA007025245","1967-04-08",48.02,28.94,0.00,0.00,
"CA007025245","1967-04-09",53.96,30.92,89.00,0.00,
"CA007025245","1967-04-10",48.92,37.04,0.00,0.00,
"CA007025245","1967-04-11",35.06,19.04,0.00,0.00,
"CA007025245","1967-04-12",39.92,19.04,0.00,0.00,
"CA007025245","1967-04-13",59.00,21.92,0.00,0.00,
"CA007025245","1967-04-14",55.94,35.96,81.00,0.00,
"CA007025245","1967-04-15",46.04,39.02,122.00,0.00,
"CA007025245","1967-04-16",39.02,35.96,30.00,0.00,
"CA007025245","1967-04-17",51.08,33.98,124.00,0.00,
"CA007025245","1967-04-18",44.06,39.92,0.00,0.00,
"CA007025245","1967-04-19",48.92,33.98,0.00,0.00,
"CA007025245","1967-04-20",51.08,35.06,0.00,0.00,
"CA007025245","1967-04-21",48.92,32.00,58.00,0.00,
"CA007025245","1967-04-22",62.06,44.06,66.00,0.00,
"CA007025245","1967-04-23",46.04,39.02,0.00,0.00,
"CA007025245","1967-04-24",46.04,39.02,0.00,0.00,
"CA007025245","1967-04-25",48.92,33.98,0.00,0.00,
"CA007025245","1967-04-26",53.06,35.96,0.00,0.00,
"CA007025245","1967-04-27",55.04,35.06,0.00,0.00,
"CA007025245","1967-04-28",55.04,35.06,0.00,0.00,
"CA007025245","1967-04-29",55.94,33.98,0.00,0.00,
"CA007025245","1967-04-30",60.98,32.00,0.00,0.00,
"CA007025245","1967-05-01",78.08,46.94,0.00,0.00,
"CA007025245","1967-05-02",69.08,51.98,86.00,0.00,
"CA007025245","1967-05-03",51.08,44.96,33.00,0.00,
"CA007025245","1967-05-04",51.08,37.04,0.00,0.00,
"CA007025245","1967-05-05",48.92,39.02,0.00,0.00,
"CA007025245","1967-05-06",53.06,35.96,0.00,0.00,
"CA007025245","1967-05-07",57.02,35.06,127.00,0.00,
"CA007025245","1967-05-08",42.08,33.08,18.00,0.00,
"CA007025245","1967-05-09",44.06,37.04,71.00,0.00,
"CA007025245","1967-05-10",50.00,39.92,18.00,0.00,
"CA007025245","1967-05-11",51.08,37.04,36.00,0.00,
"CA007025245","1967-05-12",53.96,37.94,0.00,0.00,
"CA007025245","1967-05-13",55.94,37.94,0.00,0.00,
"CA007025245","1967-05-14",57.02,39.02,0.00,0.00,
"CA007025245","1967-05-15",50.00,44.96,36.00,0.00,
"CA007025245","1967-05-16",51.08,41.00,0.00,0.00,
"CA007025245","1967-05-17",59.00,42.98,0.00,0.00,
"CA007025245","1967-05-18",57.02,37.94,81.00,0.00,
"CA007025245","1967-05-19",64.94,46.94,30.00,0.00,
"CA007025245","1967-05-20",55.94,48.02,0.00,0.00,
"CA007025245","1967-05-21",51.08,39.02,0.00,0.00,
"CA007025245","1967-05-22",53.06,39.92,0.00,0.00,
"CA007025245","1967-05-23",60.08,39.92,0.00,0.00,
"CA007025245","1967-05-24",69.98,42.08,0.00,0.00,
"CA007025245","1967-05-25",60.08,50.00,0.00,0.00,
"CA007025245","1967-05-26",64.04,44.06,0.00,0.00,
"CA007025245","1967-05-27",60.98,44.96,0.00,0.00,
"CA007025245","1967-05-28",69.08,51.08,0.00,0.00,
"CA007025245","1967-05-29",62.96,46.04,0.00,0.00,
"CA007025245","1967-05-30",62.06,48.92,0.00,0.00,
"CA007025245","1967-05-31",69.08,48.92,0.00,0.00,
"CA007025245","1967-06-01",77.00,51.08,0.00,0.00,
"CA007025245","1967-06-02",80.96,57.02,0.00,0.00,
"CA007025245","1967-06-03",87.98,57.92,0.00,0.00,
"CA007025245","1967-06-04",86.00,57.92,0.00,0.00,
"CA007025245","1967-06-05",84.02,60.98,0.00,0.00,
"CA007025245","1967-06-06",75.02,60.08,0.00,0.00,
"CA007025245","1967-06-07",75.92,62.06,41.00,0.00,
"CA007025245","1967-06-08",75.92,53.06,81.00,0.00,
"CA007025245","1967-06-09",82.04,57.02,23.00,0.00,
"CA007025245","1967-06-10",78.98,66.02,0.00,0.00,
"CA007025245","1967-06-11",73.04,62.06,61.00,0.00,
"CA007025245","1967-06-12",62.06,55.04,0.00,0.00,
"CA007025245","1967-06-13",77.00,55.04,66.00,0.00,
"CA007025245","1967-06-14",66.02,62.06,218.00,0.00,
"CA007025245","1967-06-15",78.98,62.06,18.00,0.00,
"CA007025245","1967-06-16",82.04,66.02,157.00,0.00,
"CA007025245","1967-06-17",66.02,62.06,150.00,0.00,
"CA007025245","1967-06-18",71.96,60.08,0.00,0.00,
"CA007025245","1967-06-19",71.06,51.08,0.00,0.00,
"CA007025245","1967-06-20",75.92,51.08,0.00,0.00,
"CA007025245","1967-06-21",75.92,57.92,23.00,0.00,
"CA007025245","1967-06-22",73.04,59.00,74.00,0.00,
"CA007025245","1967-06-23",78.98,62.96,0.00,0.00,
"CA007025245","1967-06-24",77.00,64.04,28.00,0.00,
"CA007025245","1967-06-25",71.96,62.96,0.00,0.00,
"CA007025245","1967-06-26",77.00,55.94,0.00,0.00,
"CA007025245","1967-06-27",78.98,62.06,0.00,0.00,
"CA007025245","1967-06-28",84.92,60.98,0.00,0.00,
"CA007025245","1967-06-29",78.98,64.04,0.00,0.00,
"CA007025245","1967-06-30",69.98,60.08,8.00,0.00,
"CA007025245","1967-07-01",80.96,64.04,0.00,0.00,
"CA007025245","1967-07-02",82.04,66.92,180.00,0.00,
"CA007025245","1967-07-03",75.02,64.94,20.00,0.00,
"CA007025245","1967-07-04",73.94,59.00,0.00,0.00,
"CA007025245","1967-07-05",69.08,59.00,0.00,0.00,
"CA007025245","1967-07-06",73.94,59.00,18.00,0.00,
"CA007025245","1967-07-07",77.00,59.00,0.00,0.00,
"CA007025245","1967-07-08",78.98,64.94,13.00,0.00,
"CA007025245","1967-07-09",73.04,69.08,15.00,0.00,
"CA007025245","1967-07-10",78.08,60.08,0.00,0.00,
"CA007025245","1967-07-11",84.02,60.08,211.00,0.00,
"CA007025245","1967-07-12",78.08,68.00,20.00,0.00,
"CA007025245","1967-07-13",73.94,64.04,0.00,0.00,
"CA007025245","1967-07-14",75.02,59.00,0.00,0.00,
"CA007025245","1967-07-15",71.06,57.92,0.00,0.00,
"CA007025245","1967-07-16",71.96,64.04,8.00,0.00,
"CA007025245","1967-07-17",75.92,60.98,0.00,0.00,
"CA007025245","1967-07-18",78.98,62.06,0.00,0.00,
"CA007025245","1967-07-19",84.92,64.04,0.00,0.00,
"CA007025245","1967-07-20",84.92,66.92,0.00,0.00,
"CA007025245","1967-07-21",86.00,68.00,0.00,0.00,
"CA007025245","1967-07-22",82.04,69.08,66.00,0.00,
"CA007025245","1967-07-23",82.04,66.02,10.00,0.00,
"CA007025245","1967-07-24",82.94,68.00,25.00,0.00,
"CA007025245","1967-07-25",78.08,69.98,0.00,0.00,
"CA007025245","1967-07-26",78.08,66.02,0.00,0.00,
"CA007025245","1967-07-27",80.06,66.92,5.00,0.00,
"CA007025245","1967-07-28",73.94,68.00,89.00,0.00,
"CA007025245","1967-07-29",80.96,68.00,0.00,0.00,
"CA007025245","1967-07-30",82.04,66.02,0.00,0.00,
"CA007025245","1967-07-31",78.08,66.02,56.00,0.00,
"CA007025245","1967-08-01",75.92,64.04,5.00,0.00,
"CA007025245","1967-08-02",80.06,57.92,0.00,0.00,
"CA007025245","1967-08-03",80.06,71.06,61.00,0.00,
"CA007025245","1967-08-04",78.08,71.06,18.00,0.00,
"CA007025245","1967-08-05",75.02,64.04,0.00,0.00,
"CA007025245","1967-08-06",78.08,57.02,0.00,0.00,
"CA007025245","1967-08-07",80.06,60.08,0.00,0.00,
"CA007025245","1967-08-08",80.96,60.08,0.00,0.00,
"CA007025245","1967-08-09",73.94,69.08,30.00,0.00,
"CA007025245","1967-08-10",68.00,64.94,10.00,0.00,
"CA007025245","1967-08-11",68.00,57.92,23.00,0.00,
"CA007025245","1967-08-12",75.92,57.02,0.00,0.00,
"CA007025245","1967-08-13",78.08,59.00,0.00,0.00,
"CA007025245","1967-08-14",78.08,64.04,23.00,0.00,
"CA007025245","1967-08-15",78.98,62.96,0.00,0.00,
"CA007025245","1967-08-16",84.02,64.94,0.00,0.00,
"CA007025245","1967-08-17",82.94,69.08,0.00,0.00,
"CA007025245","1967-08-18",80.96,66.92,104.00,0.00,
"CA007025245","1967-08-19",66.02,60.08,0.00,0.00,
"CA007025245","1967-08-20",66.92,60.98,28.00,0.00,
"CA007025245","1967-08-21",75.02,60.98,8.00,0.00,
"CA007025245","1967-08-22",69.98,62.06,0.00,0.00,
"CA007025245","1967-08-23",69.08,53.96,0.00,0.00,
"CA007025245","1967-08-24",75.92,48.92,0.00,0.00,
"CA007025245","1967-08-25",78.98,51.08,0.00,0.00,
"CA007025245","1967-08-26",82.04,62.96,0.00,0.00,
"CA007025245","1967-08-27",80.06,68.00,20.00,0.00,
"CA007025245","1967-08-28",71.06,64.04,53.00,0.00,
"CA007025245","1967-08-29",78.98,62.96,3.00,0.00,
"CA007025245","1967-08-30",71.96,66.02,300.00,0.00,
"CA007025245","1967-08-31",62.06,48.92,15.00,0.00,
"CA007025245","1967-09-01",66.92,50.00,0.00,0.00,
"CA007025245","1967-09-02",66.02,48.92,,0.00,
"CA007025245","1967-09-03",73.04,51.08,0.00,0.00,
"CA007025245","1967-09-04",71.96,55.94,0.00,0.00,
"CA007025245","1967-09-05",73.94,59.00,5.00,0.00,
"CA007025245","1967-09-06",69.98,62.96,0.00,0.00,
"CA007025245","1967-09-07",69.98,48.92,0.00,0.00,
"CA007025245","1967-09-08",78.98,62.96,0.00,0.00,
"CA007025245","1967-09-09",77.00,64.94,33.00,0.00,
"CA007025245","1967-09-10",62.06,48.92,0.00,0.00,
"CA007025245","1967-09-11",62.96,44.96,0.00,0.00,
"CA007025245","1967-09-12",69.98,42.08,0.00,0.00,
"CA007025245","1967-09-13",75.02,42.08,0.00,0.00,
"CA007025245","1967-09-14",75.92,46.04,0.00,0.00,
"CA007025245","1967-09-15",77.00,48.92,0.00,0.00,
"CA007025245","1967-09-16",80.06,57.02,0.00,0.00,
"CA007025245","1967-09-17",78.08,60.08,0.00,0.00,
"CA007025245","1967-09-18",77.00,62.96,0.00,0.00,
"CA007025245","1967-09-19",69.98,59.00,0.00,0.00,
"CA007025245","1967-09-20",78.08,46.94,0.00,0.00,
"CA007025245","1967-09-21",73.04,64.94,,0.00,
"CA007025245","1967-09-22",51.08,48.92,58.00,0.00,
"CA007025245","1967-09-23",51.98,44.96,0.00,0.00,
"CA007025245","1967-09-24",51.98,37.94,71.00,0.00,
"CA007025245","1967-09-25",53.96,44.96,0.00,0.00,
"CA007025245","1967-09-26",64.94,46.04,0.00,0.00,
"CA007025245","1967-09-27",73.04,59.00,0.00,0.00,
"CA007025245","1967-09-28",68.00,50.00,102.00,0.00,
"CA007025245","1967-09-29",71.96,59.00,10.00,0.00,
"CA007025245","1967-09-30",60.08,55.94,0.00,0.00,
"CA007025245","1967-10-01",59.00,50.00,0.00,0.00,
"CA007025245","1967-10-02",64.94,44.06,0.00,0.00,
"CA007025245","1967-10-03",75.92,53.96,0.00,0.00,
"CA007025245","1967-10-04",60.98,46.04,5.00,0.00,
"CA007025245","1967-10-05",64.94,51.08,41.00,0.00,
"CA007025245","1967-10-06",46.94,42.98,0.00,0.00,
"CA007025245","1967-10-07",46.04,35.06,0.00,0.00,
"CA007025245","1967-10-08",57.92,33.98,3.00,0.00,
"CA007025245","1967-10-09",60.98,41.00,74.00,0.00,
"CA007025245","1967-10-10",51.98,48.92,25.00,0.00,
"CA007025245","1967-10-11",55.94,48.92,0.00,0.00,
"CA007025245","1967-10-12",51.08,44.96,0.00,0.00,
"CA007025245","1967-10-13",50.00,44.96,0.00,0.00,
"CA007025245","1967-10-14",53.96,35.96,5.00,0.00,
"CA007025245","1967-10-15",60.98,48.02,13.00,0.00,
"CA007025245","1967-10-16",64.94,53.96,30.00,0.00,
"CA007025245","1967-10-17",60.98,46.94,71.00,0.00,
"CA007025245","1967-10-18",66.92,46.94,224.00,0.00,
"CA007025245","1967-10-19",53.96,39.02,41.00,0.00,
"CA007025245","1967-10-20",48.02,35.96,28.00,0.00,
"CA007025245","1967-10-21",51.98,39.02,20.00,0.00,
"CA007025245","1967-10-22",51.08,42.08,0.00,0.00,
"CA007025245","1967-10-23",57.02,35.06,0.00,0.00,
"CA007025245","1967-10-24",60.98,44.96,0.00,0.00,
"CA007025245","1967-10-25",62.06,50.00,229.00,0.00,
"CA007025245","1967-10-26",48.92,44.96,0.00,0.00,
"CA007025245","1967-10-27",51.98,44.06,0.00,0.00,
"CA007025245","1967-10-28",48.02,42.08,0.00,0.00,
"CA007025245","1967-10-29",39.92,35.96,0.00,0.00,
"CA007025245","1967-10-30",46.04,33.98,0.00,0.00,
"CA007025245","1967-10-31",51.98,33.08,0.00,0.00,
"CA007025245","1967-11-01",57.02,42.98,0.00,0.00,
"CA007025245","1967-11-02",57.02,51.08,178.00,0.00,
"CA007025245","1967-11-03",55.04,51.08,0.00,0.00,
"CA007025245","1967-11-04",51.98,39.92,66.00,0.00,
"CA007025245","1967-11-05",42.08,35.06,0.00,0.00,
"CA007025245","1967-11-06",39.02,30.92,0.00,0.00,
"CA007025245","1967-11-07",39.02,30.92,0.00,0.00,
"CA007025245","1967-11-08",33.08,30.92,0.00,0.00,
"CA007025245","1967-11-09",39.02,21.92,0.00,0.00,
"CA007025245","1967-11-10",39.02,33.98,0.00,0.00,
"CA007025245","1967-11-11",48.02,24.98,117.00,0.00,
"CA007025245","1967-11-12",50.00,44.06,43.00,0.00,
"CA007025245","1967-11-13",37.94,33.08,0.00,0.00,
"CA007025245","1967-11-14",24.98,19.04,122.00,122.00,
"CA007025245","1967-11-15",32.00,15.98,8.00,8.00,
"CA007025245","1967-11-16",28.94,17.06,0.00,0.00,
"CA007025245","1967-11-17",32.00,15.98,51.00,51.00,
"CA007025245","1967-11-18",35.06,28.04,36.00,0.00,
"CA007025245","1967-11-19",35.06,32.00,0.00,0.00,
"CA007025245","1967-11-20",30.02,26.96,0.00,0.00,
"CA007025245","1967-11-21",30.02,19.94,38.00,38.00,
"CA007025245","1967-11-22",39.02,21.92,107.00,48.00,
"CA007025245","1967-11-23",39.02,35.06,122.00,0.00,
"CA007025245","1967-11-24",37.04,32.00,0.00,0.00,
"CA007025245","1967-11-25",42.08,28.94,0.00,0.00,
"CA007025245","1967-11-26",46.04,35.96,28.00,0.00,
"CA007025245","1967-11-27",39.02,33.98,0.00,0.00,
"CA007025245","1967-11-28",30.02,26.96,0.00,0.00,
"CA007025245","1967-11-29",24.98,21.02,0.00,0.00,
"CA007025245","1967-11-30",24.98,15.98,0.00,0.00,
"CA007025245","1967-12-01",26.96,17.96,0.00,0.00,
"CA007025245","1967-12-02",35.06,10.94,84.00,15.00,
"CA007025245","1967-12-03",35.06,21.92,0.00,0.00,
"CA007025245","1967-12-04",30.92,19.94,0.00,0.00,
"CA007025245","1967-12-05",33.98,24.08,0.00,0.00,
"CA007025245","1967-12-06",23.00,15.08,0.00,0.00,
"CA007025245","1967-12-07",32.00,17.96,41.00,41.00,
"CA007025245","1967-12-08",32.00,23.00,8.00,8.00,
"CA007025245","1967-12-09",28.04,23.00,0.00,0.00,
"CA007025245","1967-12-10",19.94,10.94,0.00,0.00,
"CA007025245","1967-12-11",35.06,10.04,211.00,0.00,
"CA007025245","1967-12-12",42.98,28.94,163.00,0.00,
"CA007025245","1967-12-13",41.00,35.96,0.00,0.00,
"CA007025245","1967-12-14",35.06,33.08,0.00,0.00,
"CA007025245","1967-12-15",24.98,21.92,0.00,0.00,
"CA007025245","1967-12-16",24.98,15.08,0.00,0.00,
"CA007025245","1967-12-17",28.94,17.96,0.00,0.00,
"CA007025245","1967-12-18",37.04,23.00,107.00,0.00,
"CA007025245","1967-12-19",41.00,30.92,0.00,0.00,
"CA007025245","1967-12-20",37.94,33.08,0.00,0.00,
"CA007025245","1967-12-21",44.96,26.06,43.00,0.00,
"CA007025245","1967-12-22",50.00,35.06,0.00,0.00,
"CA007025245","1967-12-23",26.96,23.00,0.00,0.00,
"CA007025245","1967-12-24",15.08,10.94,0.00,0.00,
"CA007025245","1967-12-25",35.96,8.96,5.00,5.00,
"CA007025245","1967-12-26",15.08,10.94,0.00,0.00,
"CA007025245","1967-12-27",14.00,1.94,20.00,20.00,
"CA007025245","1967-12-28",24.98,8.06,94.00,94.00,
"CA007025245","1967-12-29",26.96,21.02,0.00,0.00,
"CA007025245","1967-12-30",24.98,1.94,0.00,0.00,
"CA007025245","1967-12-31",26.96,19.94,43.00,43.00,
"CA007025245","1968-01-01",1.04,-2.02,0.00,0.00,
"CA007025245","1968-01-02",3.92,-13.00,0.00,0.00,
"CA007025245","1968-01-03",12.02,-2.92,20.00,20.00,
"CA007025245","1968-01-04",15.98,5.00,36.00,36.00,
"CA007025245","1968-01-05",6.08,1.94,0.00,0.00,
"CA007025245","1968-01-06",8.06,-7.96,36.00,36.00,
"CA007025245","1968-01-07",10.04,-2.92,0.00,0.00,
"CA007025245","1968-01-08",-11.92,-20.02,0.00,0.00,
"CA007025245","1968-01-09",-5.98,-18.94,0.00,0.00,
"CA007025245","1968-01-10",1.94,-18.04,0.00,0.00,
"CA007025245","1968-01-11",-2.92,-7.96,0.00,0.00,
"CA007025245","1968-01-12",5.00,-7.06,0.00,0.00,
"CA007025245","1968-01-13",14.00,-7.06,0.00,0.00,
"CA007025245","1968-01-14",24.08,-2.92,104.00,104.00,
"CA007025245","1968-01-15",21.92,14.00,58.00,58.00,
"CA007025245","1968-01-16",-0.94,-7.06,0.00,0.00,
"CA007025245","1968-01-17",10.94,-14.08,0.00,0.00,
"CA007025245","1968-01-18",37.94,3.02,5.00,5.00,
"CA007025245","1968-01-19",35.96,17.96,18.00,0.00,
"CA007025245","1968-01-20",35.06,32.00,13.00,13.00,
"CA007025245","1968-01-21",35.96,26.96,0.00,0.00,
"CA007025245","1968-01-22",23.00,10.94,71.00,71.00,
"CA007025245","1968-01-23",26.06,17.06,48.00,48.00,
"CA007025245","1968-01-24",6.08,3.02,0.00,0.00,
"CA007025245","1968-01-25",6.98,-9.94,0.00,0.00,
"CA007025245","1968-01-26",26.96,-4.00,0.00,0.00,
"CA007025245","1968-01-27",30.02,12.92,0.00,0.00,
"CA007025245","1968-01-28",17.06,12.02,25.00,25.00,
"CA007025245","1968-01-29",35.06,15.08,208.00,0.00,
"CA007025245","1968-01-30",39.02,21.02,0.00,0.00,
"CA007025245","1968-01-31",24.98,14.00,0.00,0.00,
"CA007025245","1968-02-01",39.02,15.08,74.00,0.00,
"CA007025245","1968-02-02",44.96,33.08,64.00,0.00,
"CA007025245","1968-02-03",33.08,28.04,10.00,10.00,
"CA007025245","1968-02-04",21.02,15.08,0.00,0.00,
"CA007025245","1968-02-05",17.96,14.00,23.00,23.00,
"CA007025245","1968-02-06",24.08,10.94,10.00,10.00,
"CA007025245","1968-02-07",21.92,15.98,0.00,0.00,
"CA007025245","1968-02-08",12.02,1.04,0.00,0.00,
"CA007025245","1968-02-09",17.96,-0.94,0.00,0.00,
"CA007025245","1968-02-10",12.92,10.04,61.00,61.00,
"CA007025245","1968-02-11",-0.04,-4.00,18.00,18.00,
"CA007025245","1968-02-12",3.02,-5.98,0.00,0.00,
"CA007025245","1968-02-13",15.98,-4.00,0.00,0.00,
"CA007025245","1968-02-14",21.92,5.00,41.00,41.00,
"CA007025245","1968-02-15",15.98,12.02,0.00,0.00,
"CA007025245","1968-02-16",26.96,-0.04,25.00,25.00,
"CA007025245","1968-02-17",24.98,6.98,10.00,10.00,
"CA007025245","1968-02-18",8.06,-2.92,5.00,5.00,
"CA007025245","1968-02-19",12.92,1.04,0.00,0.00,
"CA007025245","1968-02-20",3.02,-0.94,0.00,0.00,
"CA007025245","1968-02-21",3.92,-7.96,0.00,0.00,
"CA007025245","1968-02-22",15.08,-0.04,20.00,20.00,
"CA007025245","1968-02-23",17.06,6.98,0.00,0.00,
"CA007025245","1968-02-24",19.94,3.02,0.00,0.00,
"CA007025245","1968-02-25",26.06,3.02,0.00,0.00,
"CA007025245","1968-02-26",26.06,6.98,0.00,0.00,
"CA007025245","1968-02-27",28.94,8.06,0.00,0.00,
"CA007025245","1968-02-28",33.98,17.06,0.00,0.00,
"CA007025245","1968-02-29",35.96,26.06,0.00,0.00,
"CA007025245","1968-03-01",37.94,28.04,0.00,0.00,
"CA007025245","1968-03-02",32.00,26.06,0.00,0.00,
"CA007025245","1968-03-03",17.06,3.92,0.00,0.00,
"CA007025245","1968-03-04",33.08,10.04,0.00,0.00,
"CA007025245","1968-03-05",24.98,17.96,0.00,0.00,
"CA007025245","1968-03-06",23.00,10.04,0.00,0.00,
"CA007025245","1968-03-07",21.02,6.08,0.00,0.00,
"CA007025245","1968-03-08",37.94,15.98,0.00,0.00,
"CA007025245","1968-03-09",39.02,26.06,0.00,0.00,
"CA007025245","1968-03-10",37.04,23.00,0.00,0.00,
"CA007025245","1968-03-11",28.94,21.92,0.00,0.00,
"CA007025245","1968-03-12",28.94,15.08,351.00,351.00,
"CA007025245","1968-03-13",26.96,21.02,38.00,38.00,
"CA007025245","1968-03-14",26.06,10.04,0.00,0.00,
"CA007025245","1968-03-15",39.02,10.04,0.00,0.00,
"CA007025245","1968-03-16",39.92,35.06,79.00,0.00,
"CA007025245","1968-03-17",42.98,33.08,0.00,0.00,
"CA007025245","1968-03-18",44.96,32.00,0.00,0.00,
"CA007025245","1968-03-19",53.06,33.08,0.00,0.00,
"CA007025245","1968-03-20",44.96,35.06,112.00,0.00,
"CA007025245","1968-03-21",39.92,35.06,33.00,0.00,
"CA007025245","1968-03-22",35.06,30.92,79.00,0.00,
"CA007025245","1968-03-23",35.06,33.08,178.00,51.00,
"CA007025245","1968-03-24",30.92,24.98,0.00,0.00,
"CA007025245","1968-03-25",35.96,19.04,0.00,0.00,
"CA007025245","1968-03-26",50.00,26.06,0.00,0.00,
"CA007025245","1968-03-27",46.04,35.96,0.00,0.00,
"CA007025245","1968-03-28",51.98,28.94,3.00,0.00,
"CA007025245","1968-03-29",60.08,33.08,0.00,0.00,
"CA007025245","1968-03-30",51.08,35.96,0.00,0.00,
"CA007025245","1968-03-31",60.98,30.92,99.00,0.00,
"CA007025245","1968-04-01",39.92,30.92,0.00,0.00,
"CA007025245","1968-04-02",46.94,28.94,0.00,0.00,
"CA007025245","1968-04-03",46.94,35.06,8.00,0.00,
"CA007025245","1968-04-04",60.98,35.96,122.00,0.00,
"CA007025245","1968-04-05",35.96,30.02,0.00,0.00,
"CA007025245","1968-04-06",41.00,26.96,0.00,0.00,
"CA007025245","1968-04-07",51.08,32.00,0.00,0.00,
"CA007025245","1968-04-08",64.04,35.06,0.00,0.00,
"CA007025245","1968-04-09",48.92,44.96,0.00,0.00,
"CA007025245","1968-04-10",48.02,33.08,0.00,0.00,
"CA007025245","1968-04-11",51.98,33.98,0.00,0.00,
"CA007025245","1968-04-12",64.94,41.00,0.00,0.00,
"CA007025245","1968-04-13",71.06,44.96,0.00,0.00,
"CA007025245","1968-04-14",80.06,46.04,0.00,0.00,
"CA007025245","1968-04-15",60.08,46.94,0.00,0.00,
"CA007025245","1968-04-16",60.98,39.92,0.00,0.00,
"CA007025245","1968-04-17",64.04,39.02,0.00,0.00,
"CA007025245","1968-04-18",64.04,39.02,0.00,0.00,
"CA007025245","1968-04-19",66.02,39.02,0.00,0.00,
"CA007025245","1968-04-20",57.92,39.02,0.00,0.00,
"CA007025245","1968-04-21",66.02,41.00,0.00,0.00,
"CA007025245","1968-04-22",68.00,42.08,0.00,0.00,
"CA007025245","1968-04-23",66.92,51.98,15.00,0.00,
"CA007025245","1968-04-24",59.00,44.06,432.00,0.00,
"CA007025245","1968-04-25",48.92,42.08,15.00,0.00,
"CA007025245","1968-04-26",44.96,39.02,0.00,0.00,
"CA007025245","1968-04-27",46.94,41.00,10.00,0.00,
"CA007025245","1968-04-28",55.94,37.94,0.00,0.00,
"CA007025245","1968-04-29",57.92,37.04,0.00,0.00,
"CA007025245","1968-04-30",62.96,42.08,0.00,0.00,
"CA007025245","1968-05-01",55.04,42.08,0.00,0.00,
"CA007025245","1968-05-02",57.02,44.06,0.00,0.00,
"CA007025245","1968-05-03",55.94,41.00,0.00,0.00,
"CA007025245","1968-05-04",53.06,42.98,0.00,0.00,
"CA007025245","1968-05-05",53.06,41.00,0.00,0.00,
"CA007025245","1968-05-06",57.02,37.94,0.00,0.00,
"CA007025245","1968-05-07",59.00,37.94,0.00,0.00,
"CA007025245","1968-05-08",66.02,41.00,0.00,0.00,
"CA007025245","1968-05-09",68.00,51.98,91.00,0.00,
"CA007025245","1968-05-10",60.98,48.92,0.00,0.00,
"CA007025245","1968-05-11",66.02,39.92,0.00,0.00,
"CA007025245","1968-05-12",66.02,53.06,0.00,0.00,